| time (UTC) | temp F | wind direction | speed MPH | gust MPH | rain 1hr in | rain 24hr in | rain mn in | humidity % | barometer mb |
| 20260901142726 | 86 | 346 | 1.0 | 4.0 | 0.00 | 0.35 | 0.00 | 77 | 1017.5 |
| 20260901142220 | 85 | 132 | 0.0 | 3.0 | 0.00 | 0.35 | 0.00 | 77 | 1017.5 |
| 20260901141727 | 85 | 355 | 1.0 | 2.0 | 0.00 | 0.35 | 0.00 | 78 | 1017.6 |
| 20260901141209 | 84 | 145 | 1.0 | 3.0 | 0.00 | 0.35 | 0.00 | 79 | 1017.6 |
| 20260901141203 | 84 | 5 | 1.0 | 3.0 | 0.00 | 0.35 | 0.00 | 77 | 1017.6 |
| 20260901140156 | 84 | 349 | 1.0 | 4.0 | 0.00 | 0.35 | 0.00 | 77 | 1017.5 |
| 20260901135650 | 83 | 0 | 0.0 | 4.0 | 0.00 | 0.35 | 0.00 | 79 | 1017.5 |
| 20260901135144 | 83 | 43 | 0.0 | 3.0 | 0.00 | 0.35 | 0.00 | 80 | 1017.6 |
| 20260901134637 | 83 | 30 | 0.0 | 0.0 | 0.00 | 0.35 | 0.00 | 81 | 1017.5 |
| 20260901134132 | 83 | 34 | 0.0 | 0.0 | 0.00 | 0.35 | 0.00 | 80 | 1017.4 |
| 20260901133626 | 82 | 180 | 0.0 | 0.0 | 0.00 | 0.35 | 0.00 | 82 | 1017.4 |
| 20260901133120 | 81 | 194 | 0.0 | 0.0 | 0.00 | 0.35 | 0.00 | 84 | 1017.4 |
| 20260901132614 | 80 | 218 | 0.0 | 0.0 | 0.00 | 0.35 | 0.00 | 86 | 1017.3 |
| 20260901132108 | 78 | 73 | 0.0 | 0.0 | 0.00 | 0.35 | 0.00 | 89 | 1017.2 |
| 20260901131602 | 78 | 234 | 0.0 | 0.0 | 0.00 | 0.35 | 0.00 | 90 | 1017.3 |
| 20260901131327 | 78 | 223 | 0.0 | 0.0 | 0.00 | 0.35 | 0.00 | 90 | 1017.2 |
| 20260901130550 | 77 | 59 | 0.0 | 0.0 | 0.00 | 0.35 | 0.00 | 90 | 1017.2 |
| 20260901130056 | 77 | 79 | 0.0 | 0.0 | 0.00 | 0.35 | 0.00 | 90 | 1017.2 |
| 20260901125539 | 77 | 119 | 0.0 | 0.0 | 0.00 | 0.35 | 0.00 | 90 | 1017.3 |
| 20260901125032 | 77 | 119 | 0.0 | 0.0 | 0.00 | 0.35 | 0.00 | 90 | 1017.3 |
| 20260901124526 | 77 | 355 | 0.0 | 0.0 | 0.00 | 0.35 | 0.00 | 91 | 1017.3 |
| 20260901124251 | 76 | 355 | 0.0 | 0.0 | 0.00 | 0.35 | 0.00 | 91 | 1017.3 |
| 20260901123514 | 76 | 355 | 0.0 | 0.0 | 0.00 | 0.35 | 0.00 | 90 | 1017.3 |
| 20260901123008 | 76 | 355 | 0.0 | 0.0 | 0.00 | 0.35 | 0.00 | 90 | 1017.3 |
| 20260901122502 | 76 | 355 | 0.0 | 0.0 | 0.00 | 0.35 | 0.00 | 90 | 1017.3 |
| 20260901121956 | 76 | 355 | 0.0 | 0.0 | 0.00 | 0.35 | 0.00 | 90 | 1017.3 |
| 20260901121721 | 76 | 355 | 0.0 | 0.0 | 0.00 | 0.35 | 0.00 | 90 | 1017.4 |
| 20260901120944 | 75 | 56 | 0.0 | 0.0 | 0.00 | 0.35 | 0.00 | 90 | 1017.4 |
| 20260901120438 | 75 | 0 | 0.0 | 0.0 | 0.00 | 0.35 | 0.00 | 90 | 1017.3 |
| 20260901115932 | 75 | 0 | 0.0 | 0.0 | 0.00 | 0.35 | 0.00 | 90 | 1017.3 |
| 20260901115426 | 75 | 0 | 0.0 | 0.0 | 0.00 | 0.35 | 0.00 | 90 | 1017.3 |
| 20260901114920 | 74 | 0 | 0.0 | 0.0 | 0.00 | 0.35 | 0.00 | 90 | 1017.3 |
| 20260901114516 | 74 | 0 | 0.0 | 0.0 | 0.00 | 0.35 | 0.00 | 90 | 1017.2 |
| 20260901113402 | 74 | 0 | 0.0 | 0.0 | 0.00 | 0.35 | 0.00 | 89 | 1017.1 |
| 20260901113127 | 74 | 0 | 0.0 | 0.0 | 0.00 | 0.35 | 0.00 | 89 | 1017.1 |
| 20260901112350 | 74 | 0 | 0.0 | 0.0 | 0.00 | 0.35 | 0.00 | 89 | 1017.1 |
| 20260901111844 | 74 | 0 | 0.0 | 0.0 | 0.00 | 0.35 | 0.00 | 89 | 1016.9 |
| 20260901111338 | 74 | 0 | 0.0 | 0.0 | 0.00 | 0.35 | 0.00 | 89 | 1017.0 |
| 20260901110832 | 74 | 0 | 0.0 | 0.0 | 0.00 | 0.35 | 0.00 | 89 | 1016.9 |
| 20260901110326 | 74 | 0 | 0.0 | 0.0 | 0.00 | 0.35 | 0.00 | 89 | 1017.0 |
| 20260901110051 | 74 | 0 | 0.0 | 0.0 | 0.00 | 0.35 | 0.00 | 89 | 1017.0 |
| 20260901105314 | 74 | 0 | 0.0 | 0.0 | 0.00 | 0.35 | 0.00 | 89 | 1016.9 |
| 20260901104807 | 74 | 0 | 0.0 | 0.0 | 0.00 | 0.35 | 0.00 | 89 | 1016.9 |
| 20260901104302 | 74 | 0 | 0.0 | 0.0 | 0.00 | 0.35 | 0.00 | 89 | 1016.9 |
| 20260901103759 | 74 | 0 | 0.0 | 0.0 | 0.00 | 0.35 | 0.00 | 89 | 1016.7 |
| 20260901103752 | 74 | 0 | 0.0 | 0.0 | 0.00 | 0.35 | 0.00 | 89 | 1016.7 |
| 20260901102744 | 74 | 0 | 0.0 | 0.0 | 0.00 | 0.35 | 0.00 | 89 | 1016.7 |
| 20260901102238 | 74 | 0 | 0.0 | 0.0 | 0.00 | 0.35 | 0.00 | 89 | 1016.7 |
| 20260901101732 | 74 | 0 | 0.0 | 0.0 | 0.00 | 0.35 | 0.00 | 89 | 1016.6 |
| 20260901101226 | 74 | 0 | 0.0 | 0.0 | 0.00 | 0.35 | 0.00 | 89 | 1016.6 |
| 20260901100720 | 74 | 0 | 0.0 | 0.0 | 0.00 | 0.35 | 0.00 | 89 | 1016.7 |
| 20260901100214 | 74 | 0 | 0.0 | 0.0 | 0.00 | 0.35 | 0.00 | 89 | 1016.6 |
| 20260901095708 | 74 | 0 | 0.0 | 0.0 | 0.00 | 0.35 | 0.00 | 89 | 1016.6 |
| 20260901095202 | 74 | 0 | 0.0 | 0.0 | 0.00 | 0.35 | 0.00 | 89 | 1016.6 |
| 20260901094656 | 74 | 0 | 0.0 | 0.0 | 0.00 | 0.35 | 0.00 | 89 | 1016.5 |
| 20260901094149 | 74 | 0 | 0.0 | 0.0 | 0.00 | 0.35 | 0.00 | 89 | 1016.6 |
| 20260901093915 | 74 | 0 | 0.0 | 0.0 | 0.00 | 0.35 | 0.00 | 89 | 1016.6 |
| 20260901093138 | 74 | 0 | 0.0 | 0.0 | 0.00 | 0.35 | 0.00 | 89 | 1016.7 |
| 20260901092632 | 74 | 0 | 0.0 | 0.0 | 0.00 | 0.35 | 0.00 | 89 | 1016.7 |
| 20260901092126 | 74 | 0 | 0.0 | 0.0 | 0.00 | 0.35 | 0.00 | 89 | 1016.7 |
| 20260901091619 | 74 | 0 | 0.0 | 0.0 | 0.00 | 0.35 | 0.00 | 89 | 1016.7 |
| 20260901091127 | 74 | 0 | 0.0 | 0.0 | 0.00 | 0.35 | 0.00 | 89 | 1016.7 |
| 20260901090608 | 74 | 0 | 0.0 | 0.0 | 0.00 | 0.35 | 0.00 | 89 | 1016.7 |
| 20260901090107 | 74 | 0 | 0.0 | 0.0 | 0.00 | 0.35 | 0.00 | 89 | 1016.6 |
| 20260901085556 | 74 | 0 | 0.0 | 0.0 | 0.00 | 0.35 | 0.00 | 89 | 1016.7 |
| 20260901085050 | 74 | 0 | 0.0 | 0.0 | 0.00 | 0.35 | 0.00 | 89 | 1016.7 |
| 20260901084544 | 74 | 0 | 0.0 | 0.0 | 0.00 | 0.35 | 0.00 | 89 | 1016.7 |
| 20260901084038 | 74 | 0 | 0.0 | 0.0 | 0.00 | 0.35 | 0.00 | 89 | 1016.9 |
| 20260901083803 | 74 | 0 | 0.0 | 0.0 | 0.00 | 0.35 | 0.00 | 89 | 1016.9 |
| 20260901083026 | 74 | 0 | 0.0 | 0.0 | 0.00 | 0.35 | 0.00 | 89 | 1016.9 |
| 20260901082520 | 75 | 0 | 0.0 | 0.0 | 0.00 | 0.35 | 0.00 | 89 | 1017.0 |
| 20260901082027 | 75 | 0 | 0.0 | 0.0 | 0.00 | 0.35 | 0.00 | 89 | 1017.0 |
| 20260901081507 | 75 | 0 | 0.0 | 0.0 | 0.00 | 0.35 | 0.00 | 89 | 1017.0 |
| 20260901081002 | 75 | 0 | 0.0 | 0.0 | 0.00 | 0.35 | 0.00 | 89 | 1017.0 |
| 20260901080456 | 75 | 0 | 0.0 | 0.0 | 0.00 | 0.35 | 0.00 | 89 | 1017.0 |
| 20260901075950 | 75 | 0 | 0.0 | 0.0 | 0.00 | 0.35 | 0.00 | 89 | 1017.1 |
| 20260901075445 | 75 | 0 | 0.0 | 0.0 | 0.00 | 0.35 | 0.00 | 89 | 1017.1 |
| 20260901074938 | 75 | 0 | 0.0 | 0.0 | 0.00 | 0.35 | 0.00 | 89 | 1017.2 |
| 20260901074445 | 75 | 0 | 0.0 | 0.0 | 0.00 | 0.35 | 0.00 | 89 | 1017.2 |
| 20260901073926 | 75 | 0 | 0.0 | 0.0 | 0.00 | 0.35 | 0.00 | 89 | 1017.2 |
| 20260901073419 | 75 | 0 | 0.0 | 0.0 | 0.00 | 0.35 | 0.00 | 89 | 1017.3 |
| 20260901073145 | 75 | 0 | 0.0 | 0.0 | 0.00 | 0.35 | 0.00 | 89 | 1017.3 |
| 20260901072407 | 75 | 0 | 0.0 | 0.0 | 0.00 | 0.35 | 0.00 | 89 | 1017.3 |
| 20260901071902 | 75 | 0 | 0.0 | 0.0 | 0.00 | 0.35 | 0.00 | 89 | 1017.4 |
| 20260901071628 | 75 | 0 | 0.0 | 0.0 | 0.00 | 0.35 | 0.00 | 89 | 1017.4 |
| 20260901070850 | 75 | 0 | 0.0 | 0.0 | 0.00 | 0.35 | 0.00 | 89 | 1017.5 |
| 20260901070615 | 75 | 0 | 0.0 | 0.0 | 0.00 | 0.35 | 0.00 | 89 | 1017.5 |
| 20260901065837 | 75 | 0 | 0.0 | 0.0 | 0.00 | 0.35 | 0.00 | 89 | 1017.5 |
| 20260901065603 | 75 | 0 | 0.0 | 0.0 | 0.00 | 0.35 | 0.00 | 89 | 1017.5 |
| 20260901064826 | 75 | 0 | 0.0 | 0.0 | 0.00 | 0.35 | 0.00 | 89 | 1017.6 |
| 20260901064320 | 75 | 0 | 0.0 | 0.0 | 0.00 | 0.35 | 0.00 | 89 | 1017.6 |
| 20260901063814 | 75 | 0 | 0.0 | 0.0 | 0.00 | 0.35 | 0.00 | 89 | 1017.6 |
| 20260901063308 | 75 | 0 | 0.0 | 0.0 | 0.00 | 0.35 | 0.00 | 89 | 1017.7 |
| 20260901062802 | 75 | 0 | 0.0 | 0.0 | 0.00 | 0.35 | 0.00 | 89 | 1017.7 |
| 20260901062255 | 75 | 0 | 0.0 | 0.0 | 0.00 | 0.35 | 0.00 | 89 | 1017.6 |
| 20260901061750 | 75 | 0 | 0.0 | 0.0 | 0.00 | 0.35 | 0.00 | 89 | 1017.7 |
| 20260901061244 | 75 | 0 | 0.0 | 0.0 | 0.00 | 0.35 | 0.00 | 89 | 1017.9 |
| 20260901060738 | 75 | 0 | 0.0 | 0.0 | 0.00 | 0.35 | 0.00 | 89 | 1017.8 |
| 20260901060232 | 75 | 0 | 0.0 | 0.0 | 0.00 | 0.35 | 0.00 | 89 | 1017.9 |
| 20260901055738 | 75 | 0 | 0.0 | 0.0 | 0.00 | 0.35 | 0.00 | 89 | 1017.9 |
| 20260901055455 | 75 | 0 | 0.0 | 0.0 | 0.00 | 0.35 | 0.00 | 89 | 1018.0 |
| 20260901055217 | 75 | 0 | 0.0 | 0.0 | 0.00 | 0.35 | 0.00 | 89 | 1018.1 |
| 20260901054442 | 75 | 0 | 0.0 | 0.0 | 0.00 | 0.35 | 0.00 | 89 | 1018.2 |
| 20260901054328 | 75 | 0 | 0.0 | 0.0 | 0.00 | 0.35 | 0.00 | 89 | 1018.2 |
| 20260901053210 | 75 | 0 | 0.0 | 0.0 | 0.00 | 0.35 | 0.00 | 89 | 1018.2 |
| 20260901052707 | 76 | 0 | 0.0 | 0.0 | 0.00 | 0.35 | 0.00 | 89 | 1018.3 |
| 20260901052207 | 76 | 0 | 0.0 | 0.0 | 0.00 | 0.35 | 0.00 | 89 | 1018.2 |
| 20260901051706 | 76 | 0 | 0.0 | 0.0 | 0.00 | 0.35 | 0.00 | 89 | 1018.2 |
| 20260901051205 | 76 | 0 | 0.0 | 0.0 | 0.00 | 0.35 | 0.00 | 89 | 1018.2 |
| 20260901050719 | 76 | 0 | 0.0 | 0.0 | 0.00 | 0.35 | 0.00 | 89 | 1018.1 |
| 20260901050207 | 76 | 0 | 0.0 | 0.0 | 0.00 | 0.35 | 0.00 | 89 | 1018.1 |
| 20260901045933 | 76 | 0 | 0.0 | 0.0 | 0.00 | 0.35 | 0.00 | 89 | 1018.1 |
| 20260901045202 | 76 | 0 | 0.0 | 0.0 | 0.00 | 0.35 | 0.00 | 89 | 1018.2 |
| 20260901044931 | 76 | 0 | 0.0 | 0.0 | 0.00 | 0.35 | 0.00 | 89 | 1018.2 |
| 20260901044158 | 76 | 0 | 0.0 | 0.0 | 0.00 | 0.35 | 0.00 | 89 | 1018.2 |
| 20260901043926 | 76 | 0 | 0.0 | 0.0 | 0.00 | 0.35 | 0.00 | 89 | 1018.3 |
| 20260901043153 | 76 | 0 | 0.0 | 0.0 | 0.00 | 0.35 | 0.00 | 89 | 1018.3 |
| 20260901042650 | 76 | 0 | 0.0 | 0.0 | 0.00 | 0.35 | 0.00 | 89 | 1018.3 |
| 20260901042150 | 76 | 0 | 0.0 | 0.0 | 0.00 | 0.35 | 0.00 | 89 | 1018.2 |
| 20260901041648 | 76 | 0 | 0.0 | 0.0 | 0.00 | 0.35 | 0.00 | 89 | 1018.2 |
| 20260901041417 | 76 | 0 | 0.0 | 0.0 | 0.00 | 0.35 | 0.00 | 89 | 1018.2 |
| 20260901040644 | 76 | 0 | 0.0 | 0.0 | 0.00 | 0.35 | 0.00 | 89 | 1018.1 |
| 20260901040142 | 75 | 0 | 0.0 | 0.0 | 0.00 | 0.35 | 0.00 | 89 | 1018.1 |
| 20260901035641 | 75 | 0 | 0.0 | 0.0 | 0.00 | 0.35 | 0.35 | 89 | 1018.2 |
| 20260901035136 | 75 | 0 | 0.0 | 0.0 | 0.00 | 0.35 | 0.35 | 89 | 1018.2 |
| 20260901034630 | 75 | 0 | 0.0 | 0.0 | 0.00 | 0.35 | 0.35 | 89 | 1018.3 |
| 20260901034124 | 75 | 0 | 0.0 | 0.0 | 0.00 | 0.35 | 0.35 | 89 | 1018.2 |
| 20260901033618 | 75 | 0 | 0.0 | 1.0 | 0.00 | 0.35 | 0.35 | 89 | 1018.2 |
| 20260901033118 | 75 | 0 | 0.0 | 2.0 | 0.00 | 0.35 | 0.35 | 89 | 1018.2 |
| 20260901032615 | 75 | 0 | 0.0 | 2.0 | 0.00 | 0.35 | 0.35 | 89 | 1018.1 |
| 20260901032114 | 75 | 355 | 0.0 | 2.0 | 0.00 | 0.35 | 0.35 | 89 | 1018.2 |
| 20260901031610 | 75 | 269 | 0.0 | 0.0 | 0.00 | 0.35 | 0.35 | 89 | 1018.1 |
| 20260901031111 | 75 | 347 | 0.0 | 1.0 | 0.00 | 0.35 | 0.35 | 89 | 1018.1 |
| 20260901030612 | 75 | 347 | 0.0 | 1.0 | 0.00 | 0.35 | 0.35 | 89 | 1018.1 |
| 20260901030109 | 75 | 347 | 0.0 | 2.0 | 0.00 | 0.35 | 0.35 | 89 | 1018.2 |
| 20260901025609 | 75 | 347 | 0.0 | 2.0 | 0.00 | 0.35 | 0.35 | 89 | 1018.1 |
| 20260901025108 | 75 | 333 | 0.0 | 1.0 | 0.00 | 0.35 | 0.35 | 88 | 1018.2 |
| 20260901024838 | 75 | 257 | 0.0 | 0.0 | 0.00 | 0.35 | 0.35 | 88 | 1018.1 |
| 20260901024106 | 75 | 257 | 0.0 | 0.0 | 0.00 | 0.35 | 0.35 | 88 | 1018.0 |
| 20260901023602 | 74 | 257 | 0.0 | 0.0 | 0.00 | 0.35 | 0.35 | 88 | 1018.0 |
| 20260901023102 | 74 | 257 | 0.0 | 0.0 | 0.00 | 0.35 | 0.35 | 88 | 1018.0 |
| 20260901022559 | 74 | 257 | 0.0 | 0.0 | 0.00 | 0.35 | 0.35 | 88 | 1018.0 |
| 20260901022104 | 74 | 257 | 0.0 | 0.0 | 0.00 | 0.35 | 0.35 | 88 | 1018.0 |
| 20260901022057 | 74 | 257 | 0.0 | 0.0 | 0.00 | 0.35 | 0.35 | 88 | 1018.1 |
| 20260901021053 | 74 | 257 | 0.0 | 0.0 | 0.00 | 0.35 | 0.35 | 88 | 1017.9 |
| 20260901020552 | 74 | 257 | 0.0 | 0.0 | 0.00 | 0.35 | 0.35 | 88 | 1018.0 |
| 20260901015547 | 74 | 257 | 0.0 | 0.0 | 0.00 | 0.35 | 0.35 | 88 | 1018.0 |
| 20260901015046 | 74 | 257 | 0.0 | 0.0 | 0.00 | 0.35 | 0.35 | 88 | 1018.0 |
| 20260901014544 | 74 | 257 | 0.0 | 0.0 | 0.00 | 0.35 | 0.35 | 88 | 1017.9 |
| 20260901014038 | 74 | 257 | 0.0 | 0.0 | 0.00 | 0.35 | 0.35 | 88 | 1017.8 |
| 20260901013531 | 75 | 257 | 0.0 | 0.0 | 0.00 | 0.35 | 0.35 | 88 | 1017.8 |
| 20260901013026 | 75 | 257 | 0.0 | 0.0 | 0.00 | 0.35 | 0.35 | 88 | 1017.8 |
| 20260901012520 | 75 | 257 | 0.0 | 0.0 | 0.00 | 0.35 | 0.35 | 88 | 1017.8 |
| 20260901012014 | 75 | 257 | 0.0 | 0.0 | 0.00 | 0.35 | 0.35 | 88 | 1017.9 |
| 20260901011507 | 75 | 257 | 0.0 | 0.0 | 0.00 | 0.35 | 0.35 | 88 | 1017.8 |
| 20260901011002 | 75 | 257 | 0.0 | 0.0 | 0.00 | 0.35 | 0.35 | 88 | 1017.8 |
| 20260901010455 | 75 | 257 | 0.0 | 0.0 | 0.00 | 0.35 | 0.35 | 88 | 1017.8 |
| 20260901005950 | 75 | 257 | 0.0 | 0.0 | 0.00 | 0.35 | 0.35 | 88 | 1017.8 |
| 20260901005444 | 75 | 257 | 0.0 | 0.0 | 0.00 | 0.35 | 0.35 | 88 | 1017.8 |
| 20260901004938 | 75 | 257 | 0.0 | 0.0 | 0.00 | 0.35 | 0.35 | 88 | 1017.8 |
| 20260901004432 | 75 | 257 | 0.0 | 0.0 | 0.00 | 0.35 | 0.35 | 88 | 1017.7 |
| 20260901003926 | 75 | 257 | 0.0 | 0.0 | 0.00 | 0.35 | 0.35 | 88 | 1017.6 |
| 20260901003419 | 75 | 257 | 0.0 | 0.0 | 0.00 | 0.35 | 0.35 | 88 | 1017.6 |
| 20260901002914 | 75 | 257 | 0.0 | 0.0 | 0.00 | 0.35 | 0.35 | 88 | 1017.7 |
| 20260901002408 | 75 | 257 | 0.0 | 1.0 | 0.00 | 0.35 | 0.35 | 88 | 1017.7 |
| 20260901001901 | 75 | 257 | 0.0 | 1.0 | 0.00 | 0.35 | 0.35 | 88 | 1017.7 |
| 20260901001356 | 75 | 173 | 0.0 | 1.0 | 0.00 | 0.35 | 0.35 | 88 | 1017.7 |
| 20260901000849 | 75 | 173 | 0.0 | 1.0 | 0.00 | 0.35 | 0.35 | 88 | 1017.6 |
| 20260901000344 | 75 | 163 | 0.0 | 0.0 | 0.00 | 0.35 | 0.35 | 88 | 1017.5 |
| 20260831235838 | 75 | 163 | 0.0 | 0.0 | 0.00 | 0.35 | 0.35 | 88 | 1017.4 |
| 20260831235332 | 75 | 163 | 0.0 | 0.0 | 0.00 | 0.35 | 0.35 | 88 | 1017.5 |
| 20260831235056 | 75 | 163 | 0.0 | 0.0 | 0.00 | 0.35 | 0.35 | 88 | 1017.4 |
| 20260831234320 | 75 | 163 | 0.0 | 0.0 | 0.00 | 0.35 | 0.35 | 88 | 1017.4 |
| 20260831234044 | 75 | 163 | 0.0 | 0.0 | 0.00 | 0.35 | 0.35 | 88 | 1017.4 |
| 20260831233540 | 75 | 163 | 0.0 | 0.0 | 0.00 | 0.35 | 0.35 | 88 | 1017.4 |
| 20260831232801 | 75 | 163 | 0.0 | 0.0 | 0.01 | 0.35 | 0.35 | 88 | 1017.4 |
| 20260831232256 | 75 | 163 | 0.0 | 3.0 | 0.01 | 0.35 | 0.35 | 88 | 1017.5 |
| 20260831231751 | 75 | 163 | 0.0 | 3.0 | 0.01 | 0.35 | 0.35 | 88 | 1017.4 |
| 20260831231515 | 75 | 153 | 0.0 | 2.0 | 0.01 | 0.35 | 0.35 | 88 | 1017.4 |
| 20260831230738 | 76 | 171 | 0.0 | 2.0 | 0.01 | 0.35 | 0.35 | 88 | 1017.4 |
| 20260831230232 | 75 | 171 | 0.0 | 2.0 | 0.02 | 0.35 | 0.35 | 88 | 1017.4 |
| 20260831225725 | 76 | 186 | 0.0 | 4.0 | 0.02 | 0.35 | 0.35 | 88 | 1017.5 |
| 20260831225220 | 75 | 188 | 1.0 | 4.0 | 0.02 | 0.35 | 0.35 | 88 | 1017.5 |
| 20260831224713 | 75 | 165 | 0.0 | 2.0 | 0.02 | 0.35 | 0.35 | 88 | 1017.5 |
| 20260831224208 | 75 | 186 | 0.0 | 2.0 | 0.07 | 0.35 | 0.35 | 88 | 1017.6 |
| 20260831223702 | 75 | 34 | 1.0 | 9.0 | 0.16 | 0.35 | 0.35 | 88 | 1017.6 |
| 20260831223426 | 75 | 292 | 2.0 | 9.0 | 0.23 | 0.35 | 0.35 | 88 | 1017.7 |
| 20260831222921 | 75 | 111 | 2.0 | 6.0 | 0.31 | 0.34 | 0.34 | 88 | 1017.6 |
| 20260831222144 | 75 | 97 | 1.0 | 5.0 | 0.33 | 0.34 | 0.34 | 88 | 1017.7 |
| 20260831221638 | 75 | 209 | 1.0 | 5.0 | 0.34 | 0.34 | 0.34 | 88 | 1017.8 |
| 20260831221132 | 74 | 196 | 2.0 | 4.0 | 0.34 | 0.34 | 0.34 | 88 | 1017.9 |
| 20260831220856 | 74 | 205 | 1.0 | 4.0 | 0.34 | 0.34 | 0.34 | 88 | 1017.9 |
| 20260831220120 | 74 | 198 | 0.0 | 0.0 | 0.33 | 0.33 | 0.33 | 88 | 1017.9 |
| 20260831215614 | 74 | 200 | 0.0 | 0.0 | 0.33 | 0.33 | 0.33 | 87 | 1017.8 |
| 20260831215108 | 74 | 209 | 0.0 | 0.0 | 0.33 | 0.33 | 0.33 | 87 | 1017.8 |
| 20260831214602 | 75 | 209 | 0.0 | 2.0 | 0.32 | 0.32 | 0.33 | 87 | 1018.0 |
| 20260831214056 | 75 | 189 | 0.0 | 2.0 | 0.26 | 0.26 | 0.26 | 85 | 1018.3 |
| 20260831213550 | 76 | 105 | 1.0 | 7.0 | 0.19 | 0.19 | 0.20 | 84 | 1018.5 |
| 20260831213044 | 77 | 103 | 1.0 | 7.0 | 0.09 | 0.09 | 0.11 | 83 | 1018.4 |
| 20260831212537 | 79 | 350 | 1.0 | 7.0 | 0.03 | 0.03 | 0.03 | 81 | 1018.5 |
| 20260831212032 | 81 | 181 | 1.0 | 6.0 | 0.01 | 0.01 | 0.01 | 78 | 1018.3 |
| 20260831211526 | 83 | 190 | 0.0 | 3.0 | 0.00 | 0.00 | 0.00 | 75 | 1018.0 |
| 20260831211020 | 83 | 325 | 0.0 | 1.0 | 0.00 | 0.00 | 0.00 | 77 | 1017.6 |
| 20260831210514 | 83 | 230 | 0.0 | 2.0 | 0.00 | 0.00 | 0.00 | 77 | 1017.2 |
| 20260831210008 | 83 | 78 | 1.0 | 4.0 | 0.00 | 0.00 | 0.00 | 76 | 1017.3 |
| 20260831205502 | 83 | 146 | 1.0 | 6.0 | 0.00 | 0.00 | 0.00 | 76 | 1017.2 |
| 20260831204956 | 83 | 92 | 1.0 | 6.0 | 0.00 | 0.00 | 0.00 | 76 | 1017.4 |
| 20260831204450 | 82 | 192 | 2.0 | 5.0 | 0.00 | 0.00 | 0.00 | 77 | 1017.3 |
| 20260831203943 | 82 | 169 | 2.0 | 5.0 | 0.00 | 0.00 | 0.00 | 76 | 1017.1 |
| 20260831203438 | 82 | 180 | 1.0 | 5.0 | 0.00 | 0.00 | 0.00 | 77 | 1017.3 |
| 20260831202932 | 82 | 161 | 1.0 | 4.0 | 0.00 | 0.00 | 0.00 | 75 | 1017.5 |
| 20260831202426 | 83 | 267 | 2.0 | 6.0 | 0.00 | 0.00 | 0.00 | 73 | 1017.5 |
| 20260831201920 | 84 | 159 | 2.0 | 6.0 | 0.00 | 0.00 | 0.00 | 72 | 1017.4 |
| 20260831201413 | 85 | 84 | 3.0 | 8.0 | 0.00 | 0.00 | 0.00 | 70 | 1017.4 |
| 20260831200908 | 85 | 123 | 3.0 | 8.0 | 0.00 | 0.00 | 0.00 | 70 | 1017.4 |
| 20260831200402 | 86 | 107 | 2.0 | 8.0 | 0.00 | 0.00 | 0.00 | 71 | 1017.3 |
| 20260831195855 | 87 | 355 | 3.0 | 9.0 | 0.00 | 0.00 | 0.00 | 69 | 1017.2 |
| 20260831195350 | 89 | 147 | 3.0 | 9.0 | 0.00 | 0.00 | 0.00 | 66 | 1017.2 |
| 20260831194847 | 89 | 161 | 3.0 | 12.0 | 0.00 | 0.00 | 0.00 | 64 | 1017.1 |
| 20260831194840 | 89 | 186 | 3.0 | 12.0 | 0.00 | 0.00 | 0.00 | 63 | 1017.2 |
| 20260831193832 | 90 | 169 | 3.0 | 8.0 | 0.00 | 0.00 | 0.00 | 60 | 1017.2 |
| 20260831193325 | 89 | 167 | 2.0 | 8.0 | 0.00 | 0.00 | 0.00 | 64 | 1017.2 |
| 20260831192820 | 89 | 162 | 1.0 | 5.0 | 0.00 | 0.00 | 0.00 | 66 | 1017.3 |
| 20260831192314 | 88 | 92 | 1.0 | 5.0 | 0.00 | 0.00 | 0.00 | 66 | 1017.3 |
| 20260831191808 | 87 | 215 | 1.0 | 6.0 | 0.00 | 0.00 | 0.00 | 68 | 1017.4 |
| 20260831191302 | 87 | 178 | 2.0 | 6.0 | 0.00 | 0.00 | 0.00 | 68 | 1017.4 |
| 20260831190756 | 87 | 83 | 2.0 | 8.0 | 0.00 | 0.00 | 0.00 | 68 | 1017.4 |
| 20260831190250 | 88 | 136 | 3.0 | 8.0 | 0.00 | 0.00 | 0.00 | 65 | 1017.5 |
| 20260831185744 | 87 | 206 | 3.0 | 9.0 | 0.00 | 0.00 | 0.00 | 65 | 1017.6 |
| 20260831185238 | 88 | 184 | 3.0 | 9.0 | 0.00 | 0.00 | 0.00 | 64 | 1017.6 |
| 20260831184732 | 88 | 179 | 3.0 | 8.0 | 0.00 | 0.00 | 0.00 | 63 | 1017.5 |
| 20260831184225 | 89 | 171 | 4.0 | 11.0 | 0.00 | 0.00 | 0.00 | 63 | 1017.6 |
| 20260831183720 | 89 | 165 | 3.0 | 11.0 | 0.00 | 0.00 | 0.00 | 62 | 1017.7 |
| 20260831183226 | 89 | 180 | 2.0 | 8.0 | 0.00 | 0.00 | 0.00 | 66 | 1017.8 |
| 20260831182707 | 88 | 65 | 2.0 | 7.0 | 0.00 | 0.00 | 0.00 | 67 | 1017.8 |
| 20260831182202 | 88 | 181 | 2.0 | 7.0 | 0.00 | 0.00 | 0.00 | 64 | 1017.8 |
| 20260831181656 | 89 | 118 | 2.0 | 6.0 | 0.00 | 0.00 | 0.00 | 66 | 1017.9 |
| 20260831181149 | 88 | 207 | 2.0 | 7.0 | 0.00 | 0.00 | 0.00 | 67 | 1017.9 |
| 20260831180644 | 87 | 98 | 2.0 | 7.0 | 0.00 | 0.00 | 0.00 | 69 | 1017.9 |
| 20260831180409 | 87 | 182 | 2.0 | 6.0 | 0.00 | 0.00 | 0.00 | 68 | 1018.0 |
| 20260831175631 | 88 | 76 | 3.0 | 9.0 | 0.00 | 0.00 | 0.00 | 66 | 1018.1 |
| 20260831175126 | 87 | 180 | 2.0 | 9.0 | 0.00 | 0.00 | 0.00 | 68 | 1018.1 |
| 20260831174620 | 87 | 154 | 2.0 | 7.0 | 0.00 | 0.00 | 0.00 | 69 | 1018.1 |
| 20260831174345 | 87 | 90 | 2.0 | 8.0 | 0.00 | 0.00 | 0.00 | 69 | 1018.1 |
| 20260831173608 | 87 | 156 | 2.0 | 8.0 | 0.00 | 0.00 | 0.00 | 67 | 1018.1 |
| 20260831173102 | 88 | 185 | 1.0 | 5.0 | 0.00 | 0.00 | 0.00 | 66 | 1018.1 |
| 20260831172826 | 88 | 182 | 1.0 | 4.0 | 0.00 | 0.00 | 0.00 | 64 | 1018.1 |
| 20260831172050 | 89 | 5 | 1.0 | 4.0 | 0.00 | 0.00 | 0.00 | 56 | 1018.1 |
| 20260831171544 | 90 | 56 | 1.0 | 4.0 | 0.00 | 0.00 | 0.00 | 53 | 1018.1 |
| 20260831171038 | 90 | 169 | 1.0 | 2.0 | 0.00 | 0.00 | 0.00 | 57 | 1018.1 |
| 20260831170532 | 89 | 163 | 1.0 | 3.0 | 0.00 | 0.00 | 0.00 | 54 | 1018.1 |
| 20260831170026 | 90 | 61 | 1.0 | 3.0 | 0.00 | 0.00 | 0.00 | 51 | 1018.2 |
| 20260831165520 | 92 | 14 | 1.0 | 5.0 | 0.00 | 0.00 | 0.00 | 52 | 1018.3 |
| 20260831165013 | 91 | 148 | 1.0 | 5.0 | 0.00 | 0.00 | 0.00 | 57 | 1018.3 |
| 20260831164507 | 91 | 190 | 1.0 | 4.0 | 0.00 | 0.00 | 0.00 | 51 | 1018.3 |
| 20260831164002 | 91 | 42 | 1.0 | 4.0 | 0.00 | 0.00 | 0.00 | 49 | 1018.4 |
| 20260831163455 | 92 | 338 | 0.0 | 2.0 | 0.00 | 0.00 | 0.00 | 57 | 1018.6 |
| 20260831162950 | 91 | 138 | 1.0 | 3.0 | 0.00 | 0.00 | 0.00 | 54 | 1018.6 |
| 20260831162444 | 90 | 119 | 1.0 | 4.0 | 0.00 | 0.00 | 0.00 | 53 | 1018.7 |
| 20260831161938 | 89 | 163 | 1.0 | 4.0 | 0.00 | 0.00 | 0.00 | 55 | 1018.7 |
| 20260831161431 | 89 | 157 | 1.0 | 3.0 | 0.00 | 0.00 | 0.00 | 58 | 1018.8 |
| 20260831160926 | 90 | 167 | 0.0 | 3.0 | 0.00 | 0.00 | 0.00 | 60 | 1018.8 |
| 20260831160420 | 89 | 221 | 1.0 | 3.0 | 0.00 | 0.00 | 0.00 | 64 | 1019.0 |
| 20260831155914 | 89 | 95 | 1.0 | 3.0 | 0.00 | 0.00 | 0.00 | 59 | 1018.9 |
| 20260831155408 | 89 | 35 | 1.0 | 4.0 | 0.00 | 0.00 | 0.00 | 54 | 1019.0 |
| 20260831154902 | 89 | 71 | 1.0 | 5.0 | 0.00 | 0.00 | 0.00 | 63 | 1019.0 |
| 20260831154355 | 89 | 350 | 1.0 | 5.0 | 0.00 | 0.00 | 0.00 | 62 | 1019.0 |
| 20260831154121 | 89 | 210 | 1.0 | 4.0 | 0.00 | 0.00 | 0.00 | 59 | 1019.0 |
| 20260831153344 | 88 | 343 | 1.0 | 4.0 | 0.00 | 0.00 | 0.00 | 62 | 1019.1 |
| 20260831152838 | 88 | 67 | 1.0 | 3.0 | 0.00 | 0.00 | 0.00 | 64 | 1019.0 |
| 20260831152332 | 88 | 101 | 1.0 | 3.0 | 0.00 | 0.00 | 0.00 | 64 | 1019.1 |
| 20260831151826 | 87 | 152 | 1.0 | 2.0 | 0.00 | 0.00 | 0.00 | 66 | 1019.1 |
| 20260831151551 | 87 | 136 | 1.0 | 3.0 | 0.00 | 0.00 | 0.00 | 69 | 1019.0 |
| 20260831150814 | 87 | 230 | 1.0 | 4.0 | 0.00 | 0.00 | 0.00 | 68 | 1019.0 |
| 20260831150308 | 87 | 19 | 1.0 | 4.0 | 0.00 | 0.00 | 0.00 | 71 | 1019.0 |
| 20260831145801 | 86 | 163 | 0.0 | 2.0 | 0.00 | 0.00 | 0.00 | 68 | 1019.0 |
| 20260831145256 | 87 | 105 | 0.0 | 4.0 | 0.00 | 0.00 | 0.00 | 70 | 1019.0 |
| 20260831144750 | 86 | 324 | 1.0 | 4.0 | 0.00 | 0.00 | 0.00 | 71 | 1019.0 |
| 20260831144243 | 86 | 43 | 1.0 | 4.0 | 0.00 | 0.00 | 0.00 | 70 | 1019.0 |
| 20260831144009 | 86 | 5 | 1.0 | 4.0 | 0.00 | 0.00 | 0.00 | 70 | 1019.1 |